Regional Weather Roundup
Issued by NWS Glasgow, MT

Current Version | Previous Version | Text Only | Print | Product List | Glossary On
Versions: 1 2 3 4 5 6 7 8 9 10 11 12 13 14 15 16 17 18 19 20 21 22 23 24 25 26 27 28 29 30 31 32 33 34 35 36 37 38 39 40 41 42 43 44 45 46 47 48 49 50
000
ASUS45 KGGW 150115
RWRGGW
HOURLY REGIONAL WEATHER ROUNDUP FOR NORTHEAST MONTANA
NATIONAL WEATHER SERVICE GLASGOW MONTANA
600 PM MST THU DEC 14 2017

NOTE: "FAIR" INDICATES FEW OR NO CLOUDS BELOW 12,000 FEET WITH NO
SIGNIFICANT WEATHER AND/OR OBSTRUCTIONS TO VISISBILITY.

NORTHEAST MONTANA


CITY           SKY/WX    TMP DP  RH WIND       PRES   REMARKS
GLASGOW        CLOUDY    29  21  72 W6        30.10F
PLENTYWOOD       N/A     27  24  89 NW13G26     N/A
WOLF POINT     CLOUDY    29  20  69 W8        30.12F
JORDAN           N/A     18  13  80 W3        30.11F
WINNETT          N/A     32  24  72 NE3         N/A
SIDNEY         CLEAR     28  22  78 W12       30.11F
GLENDIVE       CLEAR     23  18  81 W8        30.13F
SCOBEY           N/A     25  15  66 W5        30.06F

FORT PECK REPORTS


CITY           SKY/WX    TMP DP  RH WIND       PRES   REMARKS
FORT PECK        N/A     33  25  72 W9G17       N/A
THE PINES        N/A     32  24  72 W5G14       N/A

SOUTHEAST MONTANA


CITY           SKY/WX    TMP DP  RH WIND       PRES   REMARKS
BILLINGS       CLOUDY    40  20  44 W17       30.13F
MILES CITY     CLEAR     26  20  77 SW8       30.14F
BAKER          CLEAR     24  20  84 W7        30.13S
LIVINGSTON     CLOUDY    32  22  66 W15       30.20F

CENTRAL MONTANA


CITY           SKY/WX    TMP DP  RH WIND       PRES   REMARKS
HAVRE          CLOUDY    29  21  72 W5        30.07F
LEWISTOWN      CLOUDY    29  21  72 SE5       30.09F
GREAT FALLS    CLOUDY    35  20  54 SW20G26   30.11S
CUT BANK       MOCLDY    36  17  46 W10       30.04F
HELENA         CLOUDY    22  21  96 CALM      30.27F
BUTTE          CLOUDY    16  13  88 SE5       30.27S
BOZEMAN        FOG       17  15  92 N3        30.29S VSB<1/4

WESTERN MONTANA


CITY           SKY/WX    TMP DP  RH WIND       PRES   REMARKS
MISSOULA       MOCLDY    26  23  88 W3        30.36S
KALISPELL      NOT AVBL

NORTH DAKOTA


CITY           SKY/WX    TMP DP  RH WIND       PRES   REMARKS
WILLISTON      CLEAR     28  22  78 W6        30.09F
DICKINSON      CLOUDY    29  24  82 W12       30.06F
MINOT          CLOUDY    34  24  67 NW20G25   30.03F
BISMARCK       CLOUDY    36  25  64 W9        30.08F

SOUTHERN SASKATCHEWAN


CITY           SKY/WX    TMP DP  RH WIND       PRES   REMARKS
REGINA         MOCLDY    27  23  86 NW7       30.04F
MOOSE JAW      MOCLDY    25  23  93 W9        30.06F
ESTEVAN        CLOUDY    30  23  74 W13G22    30.05F
SWIFT CURRENT  CLEAR     25  21  86 SW10      30.00F




USA.gov is the U.S. government's official web portal to all federal, state and local government web resources and services.